User: anonymous   Login
Location: Unspecified
(0.0000°N, 0.0000°E)
Time: 21:27:48
(UTC+00:00)
Language:

BLUEBIRD-SM001 - Orbit

View from above orbital plane
View from above orbital plane
View from above satellite
View from above satellite

Ground track
Ground track

The orbit is defined by the following mean orbital elements,

1 61047U          26145.46159529 +.00000000 +00000-0 +10164-3 0 00005
2 61047  52.9691  53.6157 0008809  57.0690 303.1150 15.20725749    06
Epoch (UTC): 25 May 2026 11:04:41
Eccentricity: 0.0008809
inclination: 52.9691°
perigee height: 498 km
apogee height: 510 km
right ascension of ascending node: 53.6157°
argument of perigee: 57.0690°
revolutions per day: 15.20725749
mean anomaly at epoch: 303.1150°

The dashed part of the orbit path shows where the satellite is in the earth's shadow,  

DLR